SCP
0 0 1 1 1 0 0 0 0 0 0 0 0 0 0 0 0 0 0 0 0 0 0 0 0 0 0 0 0 0 0 0 0 0 0 0 0 0 0 0 0 0 0 0 0 0 0 0 0
0 0 1 1 0 0 0 0 0 0 0 0 0 0 0 0 0 0 0 0 0 0 0 0 0 0 0 0 0 0 0 0 0 0 0 0 0 0 0 0 0 0 0 0 0 0 0 0 0
0 0 0 0 0 0 0 0 0 0 0 0 0 0 0 0 0 0 0 0 0 0 0 0 0 0 0 0 0 0 0 0 0 0 0 0 0 0 0 0 0 0 0 0 0 0 0 0 0
0 0 0 0 0 0 0 0 0 0 0 0 0 0 0 0 0 0 0 0 0 0 0 0 0 0 0 0 0 0 0 0 0 0 0 0 0 0 0 0 0 0 0 0 0 0 0 0 0
0 0 0 0 0 0 0 0 0 0 0 0 0 0 0 0 0 0 0 0 0 0 0 0 0 0 0 0 0 0 0 0 0 0 0 0 0 0 0 0 0 0 0 0 0 0 0 0 0
0 0 0 0 0 0 0 0 0 0 0 0 0 0 0 0 0 0 0 0 0 0 0 0 0 0 0 0 0 0 0 0 0 0 0 0 0 0 0 0 0 0 0 0 0 0 0 0 0
0 0 0 0 0 0 0 0 0 0 0 0 0 0 0 0 0 0 0 0 0 0 0 0 0 0 0 0 0 0 0 0 0 0 0 0 0 0 0 0 0 0 0 0 0 0 0 0 0
0 0 0 0 0 0 0 0 0 0 0 0 0 0 0 0 0 0 0 0 0 0 0 0 0 0 0 0 0 0 0 0 0 0 0 0 0 0 0 0 0 0 0 0 0 0 0 0 0
0 0 0 0 0 0 0 0 0 0 0 0 0 0 1 0 0 0 0 0 0 0 0 0 0 0 0 0 0 0 0 0 0 0 0 0 0 0 0 0 0 0 0 0 0 0 0 0 0
0 0 0 0 0 0 0 0 0 0 0 0 0 1 1 1 0 0 0 0 0 0 0 0 0 0 0 0 0 0 0 0 0 0 0 0 0 0 0 0 0 0 0 0 0 0 0 0 0
0 0 0 0 0 0 0 0 0 0 0 0 1 1 1 1 1 0 0 1 1 1 1 1 0 0 0 0 0 0 0 0 0 0 0 0 0 0 0 0 0 0 0 0 0 0 0 0 0
0 0 0 0 0 0 0 0 0 0 0 0 1 1 1 1 1 1 1 1 1 1 1 1 1 0 0 0 0 0 0 0 0 0 0 0 0 0 0 0 0 0 0 0 0 0 0 0 0
0 0 0 0 0 0 0 0 0 0 0 0 1 1 1 1 1 1 1 1 1 1 1 1 1 1 0 0 0 0 0 0 0 0 0 0 0 0 0 0 0 0 0 0 0 0 0 0 0
0 0 0 0 0 0 0 0 0 0 0 0 1 1 1 1 1 1 1 1 1 1 1 1 1 1 1 0 0 0 0 0 0 0 0 0 0 0 0 0 0 0 0 0 0 0 0 0 0
0 0 0 0 0 0 0 0 0 0 0 0 1 1 1 1 1 1 2 2 2 2 1 1 1 1 1 0 0 0 0 0 0 0 0 0 0 0 0 0 0 0 0 0 0 0 0 0 0
0 0 0 0 0 0 0 0 0 0 0 0 1 1 1 1 1 2 2 2 2 2 2 1 1 1 1 1 0 0 0 0 0 0 0 0 0 0 0 0 0 0 0 0 0 0 0 0 0
0 0 0 0 0 0 0 0 0 0 0 0 1 1 1 1 2 2 2 2 2 2 2 2 1 1 1 1 1 0 0 0 0 0 0 0 0 0 0 0 0 0 0 0 0 0 0 0 0
0 0 0 0 0 0 0 0 0 0 0 0 1 1 1 2 2 2 2 2 2 2 2 2 1 1 1 1 1 1 0 0 0 0 0 0 0 0 0 0 0 0 0 0 0 0 0 0 0
0 0 0 0 0 0 0 0 0 0 0 0 1 1 1 2 2 2 2 2 2 2 2 2 2 1 1 1 1 1 1 0 0 0 0 0 0 0 0 0 0 0 0 0 0 0 0 0 0
0 0 0 0 0 0 0 0 0 0 0 0 1 1 1 2 2 2 2 2 2 2 2 2 2 1 1 1 1 1 1 0 0 0 0 0 0 0 0 0 0 0 0 0 0 0 0 0 0
0 0 0 0 0 0 0 0 0 0 0 0 1 1 1 2 2 3 2 2 2 2 2 2 2 2 1 1 1 1 1 1 0 0 1 1 0 0 0 0 0 0 0 0 0 0 0 0 0
0 0 0 0 0 0 0 0 0 0 0 0 0 1 1 2 2 2 2 2 2 2 2 2 2 2 1 1 1 1 1 1 1 1 1 1 1 0 0 0 0 0 0 0 0 0 0 0 0
0 0 0 0 0 0 0 0 0 0 0 0 0 1 1 1 2 2 2 2 2 2 2 2 2 2 1 1 1 1 1 1 1 1 1 1 1 0 0 0 0 0 0 0 0 0 0 0 0
0 0 0 0 0 0 0 0 0 0 0 0 0 1 1 1 2 2 2 3 2 2 2 2 2 2 1 1 1 1 1 1 1 1 1 1 0 0 0 0 0 0 0 0 0 0 0 0 0
0 0 0 0 0 0 0 0 0 0 0 0 0 1 1 1 2 2 2 2 2 2 2 2 2 2 1 1 1 1 1 1 1 1 1 0 0 0 0 0 0 0 0 0 0 0 0 0 0
0 0 0 0 0 0 0 0 0 0 0 0 0 1 1 1 1 2 2 2 2 2 2 2 2 1 1 1 1 1 1 1 1 1 1 0 0 0 0 0 0 0 0 0 0 0 0 0 0
0 0 0 0 0 0 0 0 0 0 0 0 0 1 1 1 1 1 2 2 1 1 2 2 2 1 1 1 1 1 1 1 1 1 0 0 0 0 0 0 0 0 0 0 0 0 0 0 0
0 0 0 0 0 0 0 0 0 0 0 0 0 1 1 1 1 1 1 1 1 1 2 2 2 1 1 1 1 1 1 1 1 1 0 0 0 0 0 0 0 0 0 0 0 0 0 0 0
0 0 0 0 0 0 0 0 0 0 0 0 0 1 1 1 1 1 2 2 1 2 2 2 2 1 1 1 1 1 1 1 1 0 0 0 0 0 0 0 0 0 0 0 0 0 0 0 0
0 0 0 0 0 0 0 0 0 0 0 0 0 1 1 1 1 1 2 2 2 2 2 2 1 1 1 1 1 1 1 1 1 1 0 0 0 0 0 0 0 0 0 0 0 0 0 0 0
Wind_Speed
9 11 9 7 3 7 16 17 16 15 15 14 15 16 19 17 13 14 15 20 21 18 16 14 13 14 13 13 12 12 12 12 12 12 12 12 12 12 13 13 13 13 13 13 13 13 13 13 12
10 11 8 4 3 10 15 15 16 14 13 15 18 20 20 20 18 17 17 18 20 18 15 14 14 13 13 12 12 12 12 11 11 11 11 12 12 12 13 13 13 13 13 13 13 13 13 12 12
12 12 6 1 10 12 16 14 14 13 13 15 18 18 16 15 16 15 16 19 19 17 16 14 14 13 13 12 11 12 11 11 11 11 12 12 12 12 13 12 13 13 13 13 13 13 12 11 10
8 5 3 4 15 16 15 12 12 13 13 14 15 14 15 14 17 17 17 19 18 17 16 14 14 13 12 11 11 11 11 11 11 11 11 12 12 12 12 12 12 13 13 13 12 12 11 10 9
7 3 1 9 16 15 13 12 13 15 15 17 19 17 15 17 18 17 16 17 17 18 16 14 14 13 12 11 11 11 11 11 11 11 11 11 11 12 12 12 12 12 12 12 12 11 10 9 7
4 3 2 10 15 13 12 12 14 14 14 16 18 17 14 15 15 15 15 15 17 18 17 14 14 13 12 11 11 11 11 11 11 11 11 11 11 11 12 11 11 12 11 11 11 11 10 8 6
6 4 5 12 12 12 12 12 13 11 13 14 17 15 13 14 14 13 13 13 16 18 17 14 13 12 12 11 11 11 10 10 10 10 10 11 11 11 11 11 11 11 10 10 10 10 9 7 4
5 2 7 11 12 12 12 12 13 12 11 11 13 12 15 15 14 13 13 12 14 15 15 14 14 12 11 10 11 10 10 10 10 9 9 10 10 10 10 10 9 9 9 9 9 9 8 6 4
4 2 6 10 10 11 11 11 13 12 8 9 13 17 19 18 15 13 12 12 11 11 11 11 13 11 10 11 11 10 9 9 9 8 9 8 6 8 7 10 9 8 8 8 8 7 7 6 4
1 2 9 9 8 9 9 11 12 11 7 11 17 19 19 16 14 13 12 12 11 10 10 10 10 9 8 8 8 7 7 7 5 5 6 4 3 4 8 9 9 8 7 7 7 7 6 5 4
1 5 7 8 8 5 7 9 10 12 10 13 18 20 18 16 14 12 11 11 10 9 8 11 9 7 6 6 5 4 3 4 4 4 4 3 3 4 6 5 5 5 6 5 6 6 5 4 2
1 5 4 5 5 3 5 7 9 10 13 16 18 19 17 16 13 12 11 11 10 8 8 9 9 6 4 4 4 4 3 3 3 3 3 3 1 2 3 2 4 4 3 2 3 2 2 2 1
1 1 2 2 3 5 4 6 8 11 15 17 18 17 16 14 13 11 11 10 10 7 7 8 8 6 4 3 1 3 3 4 5 4 1 2 2 2 2 1 0 1 2 3 1 1 2 1 1
2 2 2 2 4 4 3 5 7 10 15 17 17 15 15 14 13 11 11 10 10 8 7 8 7 7 4 3 1 1 2 2 3 4 3 2 1 2 2 1 0 0 1 1 2 1 2 1 0
5 7 7 5 5 5 3 2 6 10 12 14 15 14 14 13 12 11 11 10 10 8 7 7 7 7 5 4 3 2 2 3 2 3 4 2 2 2 2 1 1 1 1 2 1 0 1 1 1
9 10 7 4 4 7 6 2 3 9 11 12 13 13 13 11 12 11 11 9 9 8 8 7 7 8 5 4 3 1 1 2 2 3 3 3 3 2 1 2 1 1 1 1 1 1 1 1 1
11 10 7 6 4 4 4 7 8 10 11 11 11 13 13 12 11 11 12 10 8 8 8 7 5 8 7 5 3 2 1 1 1 1 2 3 4 3 3 1 1 1 1 1 2 2 1 1 0
7 7 5 6 4 3 4 6 9 9 9 11 11 12 13 12 11 12 11 11 9 8 8 7 6 6 6 5 3 2 3 2 2 2 2 3 3 4 3 2 2 2 1 1 1 1 0 1 2
9 6 1 3 4 3 4 4 7 7 7 9 11 12 12 12 12 12 11 11 10 8 8 7 7 6 5 4 4 4 4 3 3 4 5 4 4 3 2 1 2 2 2 2 2 1 2 2 2
9 8 5 4 3 4 6 5 6 7 7 7 9 11 13 13 12 12 11 10 10 9 9 8 7 7 7 4 4 3 3 3 3 3 4 5 4 3 4 3 3 3 2 2 1 1 1 2 2
9 9 7 2 2 7 8 7 4 5 7 7 8 11 12 13 14 13 12 11 11 10 9 7 7 7 6 5 3 2 2 2 2 3 3 4 4 4 3 3 3 2 3 3 3 3 3 3 2
9 7 7 7 7 7 8 4 4 5 6 9 9 10 12 13 14 14 12 11 10 9 9 6 6 6 5 5 4 4 4 3 3 2 2 3 4 4 4 3 3 3 2 2 4 4 3 3 2
8 4 6 9 10 11 10 5 4 8 6 7 9 10 11 12 14 14 12 10 9 9 9 7 6 5 4 4 4 4 4 3 2 2 3 3 3 4 4 4 3 3 3 3 3 2 2 2 2
7 6 8 10 10 12 10 6 2 5 5 5 7 9 10 11 13 13 12 11 9 9 8 8 7 5 4 4 4 4 4 3 2 3 3 3 3 3 4 4 3 3 3 2 2 2 3 2 2
9 8 7 8 8 8 7 6 4 6 6 5 7 8 10 11 12 12 12 11 10 9 9 8 7 5 5 4 3 3 3 3 3 3 4 4 3 3 4 4 3 2 2 3 2 2 3 3 3
11 13 10 8 5 4 5 4 4 7 7 6 6 8 10 11 12 13 12 11 10 10 9 8 8 6 5 5 3 3 3 2 2 3 3 3 3 3 3 3 3 3 3 3 2 2 3 3 3
13 13 15 14 12 8 4 3 5 8 8 7 8 9 11 11 12 13 13 12 10 10 8 8 7 6 5 4 4 3 2 2 2 1 2 2 2 2 4 4 3 3 2 2 2 2 2 2 3
15 12 9 10 9 9 5 6 3 8 8 7 7 9 11 11 12 13 12 12 11 10 9 8 7 6 5 4 3 3 3 2 1 1 1 0 1 0 1 1 2 2 2 2 2 2 2 2 2
14 14 10 8 9 9 5 2 3 4 5 6 8 9 10 11 12 12 11 11 11 10 10 9 8 6 5 4 3 3 3 2 2 1 2 1 1 1 1 0 1 2 2 2 2 3 2 2 2
14 15 13 8 8 9 7 3 5 4 6 6 8 10 8 9 9 12 13 11 10 10 10 9 8 7 6 5 4 3 2 3 2 2 2 2 2 1 1 1 0 1 1 1 2 2 2 2 2
Wind_Direction
260 250 239 252 236 75 69 67 68 68 65 61 59 67 64 62 80 92 106 106 108 111 114 110 106 105 103 101 100 98 96 94 92 91 89 89 90 92 94 94 93 92 93 95 97 96 96 97 98
278 269 253 252 66 78 74 71 70 67 69 71 69 73 75 75 88 101 106 111 113 118 117 109 109 106 104 103 101 99 96 94 94 94 92 91 91 92 94 93 93 93 94 96 97 97 98 100 101
268 260 264 179 76 77 80 79 81 80 74 80 77 69 73 89 99 106 115 116 110 106 106 111 113 110 108 106 104 102 99 97 95 94 93 93 94 93 94 94 95 95 95 96 97 99 100 102 104
272 257 238 85 83 80 85 92 93 88 82 84 87 81 73 89 105 115 122 115 114 118 113 115 116 114 111 109 107 105 103 100 97 96 95 95 95 96 96 96 96 97 97 98 98 100 102 104 107
260 276 75 87 85 85 84 87 90 85 80 83 88 92 89 96 110 121 123 121 124 117 117 120 119 117 115 114 111 108 105 103 102 101 99 98 98 98 97 97 97 97 98 98 99 102 103 104 106
276 279 112 90 89 91 89 87 82 90 95 100 102 102 100 112 123 131 130 129 125 121 119 121 122 121 118 116 115 113 111 109 107 106 105 104 104 102 101 100 100 99 99 100 101 102 102 105 105
256 271 97 96 96 93 92 94 92 93 96 101 111 112 122 133 135 134 129 125 123 122 127 135 134 129 126 122 119 117 117 115 115 115 114 113 112 111 107 103 102 103 105 105 105 105 106 111 113
271 322 90 96 95 92 94 94 94 88 90 110 121 120 137 138 142 133 128 125 125 129 134 141 140 140 142 133 129 126 126 125 126 127 128 125 123 122 122 115 107 109 112 114 114 114 117 123 132
294 306 82 83 90 97 100 99 91 82 81 83 90 116 134 143 142 140 138 131 127 126 132 137 136 146 148 142 138 141 141 141 144 146 145 148 150 139 142 114 120 118 121 127 130 132 138 148 170
314 68 74 73 74 94 106 112 116 111 98 94 100 115 133 144 146 150 146 141 136 133 137 133 135 142 146 137 143 155 158 155 175 151 161 176 157 130 120 129 134 136 138 147 156 157 170 191 186
13 69 73 84 77 83 103 113 123 129 135 134 129 136 145 148 153 156 152 146 138 145 140 135 129 138 141 130 157 149 145 152 159 152 162 170 150 135 132 150 150 163 172 180 165 184 203 203 206
14 76 65 73 88 90 88 98 104 105 111 127 136 143 149 154 160 159 153 144 142 153 140 132 129 138 129 128 140 150 147 151 144 156 193 149 132 129 134 156 166 173 180 180 171 186 176 153 147
267 84 116 120 126 95 77 82 90 100 109 121 134 146 154 159 161 157 150 144 144 151 144 128 128 132 125 112 172 152 145 149 144 148 176 141 141 125 113 106 151 193 153 160 147 128 109 98 131
319 305 253 165 111 108 118 118 118 115 122 129 140 152 162 160 158 152 148 147 152 159 152 137 140 140 141 145 163 133 151 133 140 145 147 152 123 121 131 148 229 305 79 101 111 124 124 124 37
271 260 242 182 158 126 66 73 121 128 133 139 148 157 159 157 155 155 154 155 157 158 152 147 151 151 159 170 192 184 184 161 142 123 131 146 130 126 154 156 203 212 122 114 103 108 130 169 158
245 249 245 161 142 136 131 165 173 148 149 148 153 156 156 154 157 155 153 155 155 157 153 163 166 156 164 177 196 205 213 129 129 135 144 153 143 160 199 190 197 184 175 161 154 221 155 112 105
232 230 212 149 160 162 164 167 183 168 157 155 158 157 156 157 162 157 156 159 158 154 154 169 165 158 169 175 187 211 151 98 130 141 147 162 175 183 216 186 174 193 199 192 202 159 158 170 190
264 232 177 146 150 212 189 163 157 162 165 160 162 157 156 162 166 157 156 157 155 153 156 167 172 165 167 172 186 203 180 174 187 180 168 176 198 198 211 188 184 213 205 181 133 119 176 212 212
299 314 331 124 127 259 239 180 162 163 174 161 161 157 160 164 160 153 154 156 157 158 162 171 179 172 173 178 186 194 194 192 195 191 179 191 210 206 215 232 171 224 211 183 190 165 206 230 214
282 280 258 172 136 265 266 235 178 168 168 165 162 157 159 159 156 154 157 161 164 164 167 175 182 178 184 185 184 190 190 202 197 199 178 191 198 206 209 207 214 206 197 196 199 190 238 247 210
260 269 292 307 193 239 252 244 200 168 160 158 164 161 163 163 159 160 167 170 169 167 174 178 177 177 186 181 181 185 174 213 202 194 180 198 200 213 233 205 227 217 202 194 205 201 214 242 251
251 264 296 295 277 273 252 245 169 170 190 176 171 167 166 162 159 163 169 169 169 167 168 166 166 171 178 178 188 190 194 205 204 195 183 194 203 213 219 222 221 231 235 197 213 206 203 227 250
266 316 284 276 274 277 274 261 172 168 202 179 165 163 161 157 158 162 164 161 161 160 160 159 157 161 168 179 189 202 212 212 203 189 183 197 206 215 225 219 213 220 231 225 221 184 196 220 240
258 270 265 264 265 261 261 268 162 163 178 161 158 150 152 153 153 153 152 150 153 156 157 155 153 159 169 185 190 202 219 222 214 197 189 203 204 213 218 215 207 217 223 231 222 200 208 222 245
231 241 243 238 236 254 254 249 161 137 146 157 143 145 147 149 147 145 147 152 156 160 156 153 152 161 170 179 190 195 215 225 218 210 201 209 205 205 206 206 197 211 219 224 218 199 224 225 226
216 238 249 263 259 257 263 252 134 124 121 127 140 141 143 145 145 147 151 153 158 159 155 152 153 161 169 172 181 184 202 223 219 212 213 216 218 210 192 188 196 206 214 225 207 210 219 218 224
226 228 253 266 273 271 206 236 155 136 140 149 152 146 147 147 146 149 152 154 156 155 151 148 148 154 163 166 169 174 187 210 216 199 218 222 217 212 183 186 190 204 209 222 207 219 231 218 217
247 246 247 264 281 288 257 238 184 148 154 153 152 146 142 147 149 148 149 152 150 150 144 141 143 148 151 153 163 160 164 155 144 162 138 174 262 274 141 167 188 208 214 213 214 223 228 218 227
222 244 256 268 270 276 280 359 66 144 151 156 153 142 142 152 148 144 142 145 145 145 145 142 141 144 146 145 146 126 136 134 129 99 88 90 68 46 63 136 224 222 214 214 220 229 213 215 231
231 227 236 244 261 278 278 209 165 156 174 162 132 126 134 139 141 141 142 143 146 148 147 146 147 148 148 143 135 121 118 115 113 102 96 93 91 77 61 83 358 282 245 237 227 236 224 215 224